| time (UTC) | temp F | wind direction | speed MPH | gust MPH | rain 1hr in | rain 24hr in | rain mn in | humidity % | barometer mb |
| 20260906031800 | 80 | 0 | 0.0 | 2.0 | 0.00 | 0.13 | 0.13 | 91 | 1011.2 |
| 20260906030800 | 80 | 0 | 0.0 | 2.0 | 0.00 | 0.13 | 0.13 | 91 | 1011.4 |
| 20260906030301 | 80 | 195 | 0.0 | 2.0 | 0.00 | 0.13 | 0.13 | 91 | 1011.5 |
| 20260906024801 | 80 | 0 | 0.0 | 1.0 | 0.00 | 0.13 | 0.13 | 91 | 1011.5 |
| 20260906023800 | 80 | 0 | 0.0 | 0.0 | 0.00 | 0.13 | 0.13 | 91 | 1011.1 |
| 20260906023301 | 80 | 0 | 0.0 | 0.0 | 0.00 | 0.13 | 0.13 | 91 | 1011.2 |
| 20260906022801 | 80 | 0 | 0.0 | 0.0 | 0.00 | 0.13 | 0.13 | 90 | 1011.2 |
| 20260906022301 | 80 | 0 | 0.0 | 0.0 | 0.00 | 0.13 | 0.13 | 90 | 1011.1 |
| 20260906021802 | 80 | 0 | 0.0 | 0.0 | 0.00 | 0.13 | 0.13 | 90 | 1011.2 |
| 20260906021301 | 80 | 0 | 0.0 | 0.0 | 0.00 | 0.13 | 0.13 | 90 | 1011.2 |
| 20260906020801 | 80 | 0 | 0.0 | 0.0 | 0.00 | 0.13 | 0.13 | 90 | 1011.2 |
| 20260906020301 | 80 | 0 | 0.0 | 1.0 | 0.00 | 0.13 | 0.13 | 90 | 1011.1 |
| 20260906015802 | 80 | 0 | 0.0 | 1.0 | 0.00 | 0.13 | 0.13 | 90 | 1011.0 |
| 20260906015301 | 80 | 0 | 0.0 | 0.0 | 0.00 | 0.13 | 0.13 | 90 | 1010.9 |
| 20260906014800 | 80 | 0 | 0.0 | 0.0 | 0.00 | 0.13 | 0.13 | 90 | 1010.7 |
| 20260906013801 | 80 | 0 | 0.0 | 1.0 | 0.00 | 0.13 | 0.13 | 90 | 1010.6 |
| 20260906013301 | 80 | 0 | 0.0 | 1.0 | 0.00 | 0.13 | 0.13 | 90 | 1010.6 |
| 20260906012802 | 80 | 171 | 0.0 | 1.0 | 0.00 | 0.13 | 0.13 | 90 | 1010.4 |
| 20260906012306 | 80 | 0 | 0.0 | 1.0 | 0.00 | 0.13 | 0.13 | 90 | 1010.3 |
| 20260906011801 | 81 | 0 | 0.0 | 0.0 | 0.00 | 0.13 | 0.13 | 90 | 1010.4 |
| 20260906011300 | 81 | 0 | 0.0 | 0.0 | 0.00 | 0.13 | 0.13 | 89 | 1010.4 |
| 20260906005802 | 81 | 0 | 0.0 | 1.0 | 0.00 | 0.13 | 0.13 | 89 | 1010.3 |
| 20260906005306 | 81 | 0 | 0.0 | 1.0 | 0.00 | 0.13 | 0.13 | 89 | 1010.3 |
| 20260906004801 | 81 | 0 | 0.0 | 0.0 | 0.00 | 0.13 | 0.13 | 89 | 1010.2 |
| 20260906004302 | 81 | 0 | 0.0 | 0.0 | 0.00 | 0.13 | 0.13 | 89 | 1010.2 |
| 20260906003802 | 81 | 0 | 0.0 | 0.0 | 0.00 | 0.13 | 0.13 | 89 | 1010.1 |
| 20260906003303 | 82 | 0 | 0.0 | 0.0 | 0.00 | 0.13 | 0.13 | 88 | 1010.0 |
| 20260906002802 | 82 | 0 | 0.0 | 0.0 | 0.00 | 0.13 | 0.13 | 88 | 1009.9 |
| 20260906002305 | 82 | 0 | 0.0 | 0.0 | 0.00 | 0.13 | 0.13 | 88 | 1009.9 |
| 20260906001806 | 82 | 0 | 0.0 | 0.0 | 0.00 | 0.13 | 0.13 | 88 | 1009.7 |
| 20260906000303 | 83 | 0 | 0.0 | 0.0 | 0.00 | 0.13 | 0.13 | 87 | 1009.6 |
| 20260905235802 | 83 | 0 | 0.0 | 0.0 | 0.00 | 0.13 | 0.13 | 86 | 1009.5 |
| 20260905235306 | 84 | 0 | 0.0 | 0.0 | 0.00 | 0.13 | 0.13 | 86 | 1009.4 |
| 20260905234802 | 84 | 0 | 0.0 | 0.0 | 0.00 | 0.13 | 0.13 | 85 | 1009.5 |
| 20260905234301 | 84 | 0 | 0.0 | 0.0 | 0.00 | 0.13 | 0.13 | 85 | 1009.5 |
| 20260905233800 | 84 | 0 | 0.0 | 0.0 | 0.00 | 0.13 | 0.13 | 85 | 1009.6 |
| 20260905232801 | 85 | 0 | 0.0 | 1.0 | 0.00 | 0.13 | 0.13 | 84 | 1009.6 |
| 20260905232300 | 86 | 0 | 0.0 | 0.0 | 0.00 | 0.13 | 0.13 | 83 | 1009.5 |
| 20260905231801 | 87 | 0 | 0.0 | 1.0 | 0.00 | 0.13 | 0.13 | 82 | 1009.4 |
| 20260905230801 | 88 | 0 | 0.0 | 2.0 | 0.00 | 0.13 | 0.13 | 80 | 1009.3 |
| 20260905230302 | 88 | 0 | 0.0 | 1.0 | 0.00 | 0.13 | 0.13 | 79 | 1009.5 |
| 20260905225801 | 88 | 0 | 0.0 | 1.0 | 0.00 | 0.13 | 0.13 | 79 | 1009.7 |
| 20260905225301 | 88 | 0 | 0.0 | 2.0 | 0.00 | 0.13 | 0.13 | 79 | 1009.8 |
| 20260905224300 | 88 | 176 | 0.0 | 2.0 | 0.00 | 0.13 | 0.13 | 78 | 1010.1 |
| 20260905223802 | 88 | 0 | 0.0 | 3.0 | 0.00 | 0.13 | 0.13 | 78 | 1010.1 |
| 20260905223301 | 89 | 0 | 1.0 | 3.0 | 0.00 | 0.13 | 0.13 | 77 | 1010.1 |
| 20260905222301 | 91 | 204 | 0.0 | 2.0 | 0.00 | 0.13 | 0.13 | 71 | 1010.1 |
| 20260905221801 | 91 | 0 | 0.0 | 2.0 | 0.00 | 0.13 | 0.13 | 71 | 1010.2 |
| 20260905221301 | 91 | 0 | 0.0 | 2.0 | 0.00 | 0.13 | 0.13 | 73 | 1010.2 |
| 20260905220801 | 91 | 0 | 1.0 | 3.0 | 0.00 | 0.13 | 0.13 | 74 | 1010.1 |
| 20260905220301 | 92 | 118 | 0.0 | 3.0 | 0.00 | 0.13 | 0.13 | 70 | 1010.1 |
| 20260905215801 | 92 | 0 | 0.0 | 2.0 | 0.00 | 0.13 | 0.13 | 68 | 1010.2 |
| 20260905214800 | 92 | 0 | 0.0 | 5.0 | 0.00 | 0.13 | 0.13 | 67 | 1010.2 |
| 20260905213800 | 90 | 357 | 0.0 | 4.0 | 0.00 | 0.13 | 0.13 | 69 | 1010.3 |
| 20260905213301 | 89 | 0 | 0.0 | 4.0 | 0.00 | 0.13 | 0.13 | 73 | 1010.2 |
| 20260905212305 | 89 | 199 | 1.0 | 4.0 | 0.00 | 0.13 | 0.13 | 75 | 1010.3 |
| 20260905211802 | 89 | 0 | 1.0 | 7.0 | 0.00 | 0.13 | 0.13 | 76 | 1010.3 |
| 20260905211302 | 89 | 214 | 2.0 | 7.0 | 0.00 | 0.13 | 0.13 | 75 | 1010.3 |
| 20260905205801 | 87 | 241 | 1.0 | 5.0 | 0.00 | 0.13 | 0.13 | 79 | 1010.2 |
| 20260905205302 | 86 | 219 | 3.0 | 6.0 | 0.00 | 0.13 | 0.13 | 84 | 1010.2 |
| 20260905204804 | 85 | 126 | 4.0 | 6.0 | 0.00 | 0.13 | 0.13 | 84 | 1010.2 |
| 20260905204301 | 85 | 154 | 4.0 | 5.0 | 0.00 | 0.13 | 0.13 | 85 | 1010.3 |
| 20260905203800 | 85 | 93 | 2.0 | 5.0 | 0.00 | 0.13 | 0.13 | 86 | 1010.2 |
| 20260905203301 | 85 | 132 | 2.0 | 4.0 | 0.00 | 0.13 | 0.13 | 85 | 1010.3 |
| 20260905202801 | 84 | 53 | 2.0 | 4.0 | 0.00 | 0.14 | 0.13 | 87 | 1010.3 |
| 20260905202301 | 84 | 92 | 1.0 | 3.0 | 0.00 | 0.14 | 0.13 | 87 | 1010.3 |
| 20260905201301 | 84 | 177 | 1.0 | 3.0 | 0.00 | 0.14 | 0.13 | 88 | 1010.5 |
| 20260905200305 | 84 | 76 | 0.0 | 3.0 | 0.00 | 0.14 | 0.13 | 88 | 1010.5 |
| 20260905195301 | 84 | 0 | 0.0 | 2.0 | 0.00 | 0.14 | 0.13 | 88 | 1010.6 |
| 20260905194801 | 83 | 0 | 0.0 | 2.0 | 0.00 | 0.14 | 0.13 | 89 | 1010.8 |
| 20260905194302 | 83 | 0 | 1.0 | 2.0 | 0.00 | 0.15 | 0.13 | 88 | 1010.8 |
| 20260905193802 | 84 | 153 | 1.0 | 2.0 | 0.00 | 0.16 | 0.13 | 88 | 1010.9 |
| 20260905193301 | 84 | 143 | 1.0 | 3.0 | 0.00 | 0.17 | 0.13 | 87 | 1010.7 |
| 20260905192802 | 84 | 150 | 0.0 | 3.0 | 0.00 | 0.30 | 0.13 | 85 | 1010.6 |
| 20260905192301 | 83 | 0 | 0.0 | 2.0 | 0.00 | 0.54 | 0.13 | 87 | 1010.7 |
| 20260905191802 | 82 | 0 | 0.0 | 2.0 | 0.00 | 0.82 | 0.13 | 88 | 1010.8 |
| 20260905191301 | 81 | 0 | 0.0 | 1.0 | 0.02 | 1.01 | 0.13 | 90 | 1011.1 |
| 20260905190802 | 81 | 0 | 0.0 | 1.0 | 0.06 | 1.14 | 0.13 | 90 | 1011.3 |
| 20260905190302 | 81 | 0 | 0.0 | 1.0 | 0.09 | 1.19 | 0.13 | 91 | 1011.3 |
| 20260905185802 | 81 | 0 | 0.0 | 0.0 | 0.11 | 1.19 | 0.13 | 91 | 1011.3 |
| 20260905185305 | 80 | 0 | 0.0 | 2.0 | 0.11 | 1.19 | 0.13 | 91 | 1011.1 |
| 20260905184802 | 80 | 0 | 0.0 | 2.0 | 0.11 | 1.19 | 0.13 | 91 | 1011.1 |
| 20260905184300 | 80 | 0 | 0.0 | 1.0 | 0.11 | 1.19 | 0.13 | 92 | 1011.1 |
| 20260905183800 | 80 | 0 | 0.0 | 2.0 | 0.11 | 1.19 | 0.13 | 92 | 1011.3 |
| 20260905183301 | 79 | 0 | 0.0 | 3.0 | 0.11 | 1.19 | 0.13 | 91 | 1011.5 |
| 20260905182801 | 79 | 164 | 1.0 | 3.0 | 0.11 | 1.19 | 0.13 | 91 | 1011.5 |
| 20260905182306 | 79 | 174 | 0.0 | 2.0 | 0.11 | 1.19 | 0.13 | 90 | 1011.5 |
| 20260905180800 | 81 | 150 | 2.0 | 14.0 | 0.05 | 1.13 | 0.07 | 88 | 1011.7 |
| 20260905180302 | 82 | 299 | 6.0 | 14.0 | 0.02 | 1.10 | 0.04 | 85 | 1011.8 |
| 20260905175801 | 85 | 301 | 8.0 | 15.0 | 0.00 | 1.09 | 0.02 | 77 | 1011.6 |
| 20260905175301 | 87 | 319 | 5.0 | 15.0 | 0.00 | 1.09 | 0.02 | 75 | 1011.6 |
| 20260905174801 | 88 | 275 | 4.0 | 9.0 | 0.00 | 1.09 | 0.02 | 73 | 1011.5 |
| 20260905174300 | 88 | 308 | 4.0 | 9.0 | 0.00 | 1.10 | 0.02 | 71 | 1011.6 |
| 20260905173801 | 88 | 316 | 4.0 | 8.0 | 0.00 | 1.10 | 0.02 | 73 | 1011.7 |
| 20260905173301 | 88 | 327 | 4.0 | 8.0 | 0.00 | 1.10 | 0.02 | 72 | 1011.6 |
| 20260905172801 | 89 | 17 | 4.0 | 8.0 | 0.00 | 1.10 | 0.02 | 72 | 1011.7 |
| 20260905172301 | 87 | 302 | 4.0 | 10.0 | 0.00 | 1.10 | 0.02 | 76 | 1011.8 |
| 20260905171801 | 87 | 337 | 4.0 | 10.0 | 0.00 | 1.10 | 0.02 | 77 | 1011.9 |
| 20260905171300 | 88 | 345 | 3.0 | 8.0 | 0.00 | 1.10 | 0.02 | 76 | 1012.0 |
| 20260905170301 | 88 | 17 | 3.0 | 7.0 | 0.00 | 1.10 | 0.02 | 74 | 1012.1 |
| 20260905165801 | 86 | 277 | 2.0 | 6.0 | 0.00 | 1.10 | 0.02 | 78 | 1012.2 |
| 20260905165300 | 86 | 313 | 3.0 | 7.0 | 0.00 | 1.10 | 0.02 | 79 | 1012.4 |
| 20260905164800 | 87 | 290 | 3.0 | 7.0 | 0.00 | 1.10 | 0.02 | 78 | 1012.4 |
| 20260905163800 | 87 | 327 | 2.0 | 7.0 | 0.02 | 1.10 | 0.02 | 75 | 1012.5 |
| 20260905163300 | 86 | 14 | 4.0 | 10.0 | 0.02 | 1.10 | 0.02 | 78 | 1012.5 |
| 20260905162801 | 87 | 33 | 2.0 | 10.0 | 0.02 | 1.10 | 0.02 | 77 | 1012.6 |
| 20260905162301 | 86 | 318 | 1.0 | 7.0 | 0.02 | 1.10 | 0.02 | 80 | 1012.7 |
| 20260905161801 | 85 | 0 | 2.0 | 6.0 | 0.02 | 1.10 | 0.02 | 82 | 1012.8 |
| 20260905161301 | 86 | 242 | 2.0 | 6.0 | 0.02 | 1.10 | 0.02 | 80 | 1012.9 |
| 20260905160800 | 86 | 318 | 2.0 | 6.0 | 0.02 | 1.10 | 0.02 | 78 | 1012.9 |
| 20260905160301 | 84 | 320 | 3.0 | 6.0 | 0.02 | 1.10 | 0.02 | 85 | 1013.0 |
| 20260905155801 | 84 | 309 | 3.0 | 6.0 | 0.02 | 1.10 | 0.02 | 85 | 1013.0 |
| 20260905155301 | 84 | 286 | 2.0 | 6.0 | 0.02 | 1.10 | 0.02 | 84 | 1013.1 |
| 20260905154800 | 84 | 243 | 3.0 | 9.0 | 0.02 | 1.10 | 0.02 | 84 | 1013.2 |
| 20260905154301 | 85 | 295 | 4.0 | 9.0 | 0.00 | 1.09 | 0.00 | 82 | 1013.2 |
| 20260905153801 | 86 | 259 | 3.0 | 8.0 | 0.00 | 1.08 | 0.00 | 79 | 1013.1 |
| 20260905152801 | 84 | 303 | 2.0 | 6.0 | 0.00 | 1.08 | 0.00 | 83 | 1013.3 |
| 20260905152301 | 84 | 302 | 2.0 | 8.0 | 0.00 | 1.08 | 0.00 | 84 | 1013.4 |
| 20260905150801 | 84 | 330 | 2.0 | 6.0 | 0.00 | 1.08 | 0.00 | 83 | 1013.3 |
| 20260905145801 | 83 | 203 | 3.0 | 8.0 | 0.00 | 1.08 | 0.00 | 87 | 1013.4 |
| 20260905145301 | 83 | 313 | 1.0 | 8.0 | 0.00 | 1.08 | 0.00 | 86 | 1013.5 |
| 20260905144801 | 83 | 0 | 1.0 | 4.0 | 0.00 | 1.08 | 0.00 | 86 | 1013.5 |
| 20260905144301 | 83 | 306 | 0.0 | 4.0 | 0.00 | 1.08 | 0.00 | 87 | 1013.5 |
| 20260905143800 | 83 | 0 | 1.0 | 5.0 | 0.00 | 1.08 | 0.00 | 86 | 1013.5 |
| 20260905142801 | 82 | 316 | 1.0 | 3.0 | 0.00 | 1.08 | 0.00 | 87 | 1013.5 |
| 20260905142301 | 82 | 177 | 1.0 | 6.0 | 0.00 | 1.08 | 0.00 | 87 | 1013.5 |
| 20260905141800 | 82 | 284 | 2.0 | 6.0 | 0.00 | 1.08 | 0.00 | 88 | 1013.5 |
| 20260905141302 | 82 | 311 | 1.0 | 6.0 | 0.00 | 1.08 | 0.00 | 87 | 1013.4 |
| 20260905140801 | 82 | 293 | 1.0 | 5.0 | 0.00 | 1.08 | 0.00 | 88 | 1013.3 |
| 20260905140301 | 82 | 0 | 2.0 | 7.0 | 0.00 | 1.08 | 0.00 | 88 | 1013.4 |
| 20260905135801 | 82 | 182 | 2.0 | 7.0 | 0.00 | 1.08 | 0.00 | 88 | 1013.3 |
| 20260905135306 | 82 | 324 | 2.0 | 6.0 | 0.00 | 1.08 | 0.00 | 89 | 1013.3 |
| 20260905134801 | 81 | 276 | 1.0 | 6.0 | 0.00 | 1.08 | 0.00 | 92 | 1013.3 |
| 20260905134302 | 80 | 234 | 2.0 | 4.0 | 0.00 | 1.08 | 0.00 | 94 | 1013.5 |
| 20260905133800 | 80 | 108 | 1.0 | 4.0 | 0.00 | 1.08 | 0.00 | 95 | 1013.5 |
| 20260905133301 | 79 | 187 | 1.0 | 4.0 | 0.00 | 1.08 | 0.00 | 96 | 1013.5 |
| 20260905132801 | 79 | 0 | 1.0 | 4.0 | 0.00 | 1.08 | 0.00 | 96 | 1013.4 |
| 20260905132305 | 78 | 190 | 1.0 | 4.0 | 0.00 | 1.08 | 0.00 | 96 | 1013.3 |
| 20260905131801 | 78 | 91 | 1.0 | 5.0 | 0.00 | 1.08 | 0.00 | 96 | 1013.3 |
| 20260905131301 | 78 | 230 | 1.0 | 5.0 | 0.00 | 1.08 | 0.00 | 96 | 1013.4 |
| 20260905130801 | 78 | 0 | 1.0 | 5.0 | 0.00 | 1.08 | 0.00 | 96 | 1013.6 |
| 20260905130302 | 78 | 196 | 2.0 | 5.0 | 0.00 | 1.08 | 0.00 | 96 | 1013.5 |
| 20260905125801 | 77 | 0 | 1.0 | 3.0 | 0.00 | 1.08 | 0.00 | 96 | 1013.4 |
| 20260905125305 | 77 | 0 | 0.0 | 3.0 | 0.00 | 1.08 | 0.00 | 96 | 1013.4 |
| 20260905124804 | 77 | 0 | 0.0 | 3.0 | 0.00 | 1.08 | 0.00 | 96 | 1013.4 |
| 20260905124300 | 76 | 262 | 0.0 | 3.0 | 0.00 | 1.08 | 0.00 | 96 | 1013.3 |
| 20260905123801 | 76 | 231 | 0.0 | 3.0 | 0.00 | 1.08 | 0.00 | 96 | 1013.3 |
| 20260905123305 | 76 | 0 | 0.0 | 0.0 | 0.00 | 1.08 | 0.00 | 95 | 1013.3 |
| 20260905122301 | 76 | 0 | 0.0 | 1.0 | 0.00 | 1.08 | 0.00 | 95 | 1013.2 |
| 20260905121804 | 76 | 0 | 0.0 | 0.0 | 0.00 | 1.08 | 0.00 | 95 | 1013.1 |
| 20260905115801 | 76 | 0 | 0.0 | 0.0 | 0.00 | 1.08 | 0.00 | 95 | 1012.7 |
| 20260905115301 | 76 | 0 | 0.0 | 0.0 | 0.00 | 1.08 | 0.00 | 95 | 1012.7 |
| 20260905114801 | 76 | 0 | 0.0 | 0.0 | 0.00 | 1.08 | 0.00 | 95 | 1012.6 |
| 20260905114300 | 76 | 0 | 0.0 | 0.0 | 0.00 | 1.08 | 0.00 | 95 | 1012.6 |
| 20260905113801 | 76 | 0 | 0.0 | 0.0 | 0.00 | 1.08 | 0.00 | 95 | 1012.6 |
| 20260905113301 | 75 | 0 | 0.0 | 1.0 | 0.00 | 1.08 | 0.00 | 95 | 1012.5 |
| 20260905112306 | 75 | 0 | 0.0 | 0.0 | 0.00 | 1.08 | 0.00 | 95 | 1012.2 |
| 20260905111802 | 75 | 0 | 0.0 | 0.0 | 0.00 | 1.08 | 0.00 | 95 | 1012.2 |
| 20260905110801 | 75 | 0 | 0.0 | 0.0 | 0.00 | 1.08 | 0.00 | 95 | 1012.2 |
| 20260905110301 | 75 | 0 | 0.0 | 0.0 | 0.00 | 1.08 | 0.00 | 95 | 1012.2 |
| 20260905105802 | 75 | 0 | 0.0 | 0.0 | 0.00 | 1.08 | 0.00 | 95 | 1012.2 |
| 20260905105305 | 75 | 0 | 0.0 | 1.0 | 0.00 | 1.08 | 0.00 | 95 | 1012.1 |
| 20260905104301 | 75 | 0 | 0.0 | 0.0 | 0.00 | 1.08 | 0.00 | 95 | 1012.0 |
| 20260905103802 | 75 | 0 | 0.0 | 1.0 | 0.00 | 1.08 | 0.00 | 95 | 1011.9 |
| 20260905102802 | 75 | 0 | 0.0 | 0.0 | 0.00 | 1.08 | 0.00 | 95 | 1011.9 |
| 20260905101802 | 75 | 0 | 0.0 | 0.0 | 0.00 | 1.08 | 0.00 | 95 | 1012.0 |
| 20260905100302 | 75 | 0 | 0.0 | 0.0 | 0.00 | 1.08 | 0.00 | 95 | 1012.0 |
| 20260905095806 | 75 | 0 | 0.0 | 0.0 | 0.00 | 1.08 | 0.00 | 95 | 1012.0 |
| 20260905095305 | 75 | 0 | 0.0 | 0.0 | 0.00 | 1.08 | 0.00 | 95 | 1012.1 |
| 20260905094802 | 75 | 0 | 0.0 | 0.0 | 0.00 | 1.08 | 0.00 | 95 | 1012.1 |
| 20260905094302 | 75 | 0 | 0.0 | 0.0 | 0.00 | 1.08 | 0.00 | 95 | 1012.2 |
| 20260905093801 | 75 | 0 | 0.0 | 0.0 | 0.00 | 1.08 | 0.00 | 95 | 1012.2 |
| 20260905092802 | 75 | 0 | 0.0 | 1.0 | 0.00 | 1.08 | 0.00 | 95 | 1012.2 |
| 20260905092305 | 75 | 0 | 0.0 | 1.0 | 0.00 | 1.08 | 0.00 | 95 | 1012.2 |
| 20260905091302 | 75 | 0 | 0.0 | 1.0 | 0.00 | 1.08 | 0.00 | 95 | 1012.0 |
| 20260905090802 | 75 | 0 | 0.0 | 2.0 | 0.00 | 1.08 | 0.00 | 95 | 1011.9 |
| 20260905090257 | 75 | 0 | 0.0 | 2.0 | 0.00 | 1.08 | 0.00 | 95 | 1011.9 |
| 20260905085249 | 75 | 0 | 0.0 | 0.0 | 0.00 | 1.08 | 0.00 | 95 | 1011.9 |
| 20260905084748 | 75 | 0 | 0.0 | 0.0 | 0.00 | 1.08 | 0.00 | 95 | 1011.9 |
| 20260905083750 | 75 | 0 | 0.0 | 1.0 | 0.00 | 1.08 | 0.00 | 95 | 1011.8 |
| 20260905083248 | 75 | 0 | 0.0 | 0.0 | 0.00 | 1.08 | 0.00 | 95 | 1011.8 |
| 20260905082749 | 75 | 0 | 0.0 | 0.0 | 0.00 | 1.08 | 0.00 | 95 | 1011.8 |
| 20260905082249 | 75 | 0 | 0.0 | 0.0 | 0.00 | 1.08 | 0.00 | 95 | 1011.8 |
| 20260905081748 | 75 | 0 | 0.0 | 0.0 | 0.00 | 1.08 | 0.00 | 95 | 1011.8 |
| 20260905081249 | 75 | 0 | 0.0 | 0.0 | 0.00 | 1.08 | 0.00 | 95 | 1011.8 |
| 20260905080750 | 75 | 0 | 0.0 | 0.0 | 0.00 | 1.08 | 0.00 | 95 | 1011.8 |
| 20260905080250 | 75 | 0 | 0.0 | 0.0 | 0.00 | 1.08 | 0.00 | 95 | 1011.9 |
| 20260905075234 | 75 | 0 | 0.0 | 0.0 | 0.00 | 1.08 | 0.00 | 95 | 1011.9 |
| 20260905074734 | 75 | 0 | 0.0 | 2.0 | 0.00 | 1.08 | 0.00 | 95 | 1011.9 |
| 20260905073735 | 75 | 0 | 0.0 | 1.0 | 0.00 | 1.08 | 0.00 | 95 | 1011.9 |
| 20260905073235 | 75 | 172 | 0.0 | 1.0 | 0.00 | 1.08 | 0.00 | 95 | 1012.0 |
| 20260905072735 | 75 | 0 | 0.0 | 0.0 | 0.00 | 1.08 | 0.00 | 95 | 1012.1 |
| 20260905072232 | 76 | 0 | 0.0 | 0.0 | 0.00 | 1.08 | 0.00 | 95 | 1012.2 |
| 20260905071732 | 76 | 0 | 0.0 | 2.0 | 0.00 | 1.08 | 0.00 | 95 | 1012.3 |
| 20260905071232 | 76 | 0 | 0.0 | 2.0 | 0.00 | 1.08 | 0.00 | 95 | 1012.3 |
| 20260905070230 | 75 | 0 | 0.0 | 0.0 | 0.00 | 1.08 | 0.00 | 95 | 1012.5 |
| 20260905065730 | 75 | 0 | 0.0 | 0.0 | 0.00 | 1.08 | 0.00 | 95 | 1012.4 |
| 20260905065230 | 75 | 0 | 0.0 | 0.0 | 0.00 | 1.08 | 0.00 | 95 | 1012.4 |
| 20260905064730 | 75 | 0 | 0.0 | 0.0 | 0.00 | 1.08 | 0.00 | 95 | 1012.5 |
| 20260905064229 | 75 | 0 | 0.0 | 1.0 | 0.00 | 1.08 | 0.00 | 95 | 1012.5 |
| 20260905063729 | 75 | 0 | 0.0 | 1.0 | 0.00 | 1.08 | 0.00 | 95 | 1012.5 |
| 20260905063230 | 75 | 0 | 0.0 | 0.0 | 0.00 | 1.08 | 0.00 | 95 | 1012.5 |
| 20260905062731 | 75 | 0 | 0.0 | 0.0 | 0.00 | 1.08 | 0.00 | 95 | 1012.5 |
| 20260905062230 | 75 | 0 | 0.0 | 2.0 | 0.00 | 1.08 | 0.00 | 95 | 1012.6 |
| 20260905061230 | 75 | 0 | 0.0 | 1.0 | 0.00 | 1.08 | 0.00 | 95 | 1012.6 |
| 20260905060729 | 75 | 0 | 0.0 | 1.0 | 0.00 | 1.08 | 0.00 | 95 | 1012.6 |
| 20260905060231 | 76 | 0 | 0.0 | 0.0 | 0.00 | 1.08 | 0.00 | 95 | 1012.7 |
| 20260905055730 | 76 | 0 | 0.0 | 1.0 | 0.00 | 1.08 | 0.00 | 95 | 1012.7 |
| 20260905055230 | 76 | 0 | 0.0 | 1.0 | 0.00 | 1.08 | 0.00 | 95 | 1012.8 |
| 20260905054730 | 76 | 0 | 0.0 | 1.0 | 0.00 | 1.08 | 0.00 | 95 | 1012.9 |
| 20260905054229 | 76 | 0 | 0.0 | 1.0 | 0.00 | 1.08 | 0.00 | 95 | 1012.9 |
| 20260905053729 | 76 | 114 | 0.0 | 2.0 | 0.00 | 1.08 | 0.00 | 95 | 1013.0 |
| 20260905052730 | 76 | 192 | 0.0 | 2.0 | 0.00 | 1.08 | 0.00 | 95 | 1013.0 |
| 20260905052230 | 76 | 0 | 0.0 | 2.0 | 0.00 | 1.08 | 0.00 | 95 | 1013.1 |
| 20260905051730 | 76 | 0 | 0.0 | 2.0 | 0.00 | 1.08 | 0.00 | 95 | 1013.1 |
| 20260905051230 | 76 | 175 | 0.0 | 2.0 | 0.00 | 1.08 | 0.00 | 95 | 1013.1 |
| 20260905050231 | 76 | 0 | 0.0 | 2.0 | 0.00 | 1.08 | 0.00 | 95 | 1013.1 |
| 20260905045230 | 76 | 0 | 0.0 | 3.0 | 0.00 | 1.08 | 0.00 | 95 | 1013.2 |
| 20260905044730 | 76 | 0 | 1.0 | 3.0 | 0.00 | 1.08 | 0.00 | 95 | 1013.2 |
| 20260905043729 | 76 | 0 | 0.0 | 1.0 | 0.00 | 1.08 | 0.00 | 95 | 1013.3 |
| 20260905043231 | 76 | 0 | 0.0 | 2.0 | 0.00 | 1.08 | 0.00 | 95 | 1013.2 |
| 20260905042731 | 76 | 0 | 1.0 | 4.0 | 0.00 | 1.08 | 0.00 | 95 | 1013.2 |
| 20260905042231 | 76 | 0 | 1.0 | 4.0 | 0.00 | 1.08 | 0.00 | 95 | 1013.2 |
| 20260905041730 | 77 | 71 | 0.0 | 2.0 | 0.00 | 1.08 | 0.00 | 95 | 1013.1 |
| 20260905041229 | 77 | 0 | 0.0 | 1.0 | 0.00 | 1.08 | 0.00 | 95 | 1013.0 |
| 20260905040729 | 77 | 0 | 0.0 | 2.0 | 0.00 | 1.08 | 0.00 | 95 | 1013.1 |
| 20260905035730 | 77 | 0 | 1.0 | 3.0 | 0.00 | 1.08 | 1.08 | 95 | 1013.0 |
| 20260905035230 | 77 | 214 | 1.0 | 3.0 | 0.00 | 1.08 | 1.08 | 95 | 1013.1 |
| 20260905034730 | 77 | 0 | 0.0 | 2.0 | 0.00 | 1.08 | 1.08 | 95 | 1013.2 |
| 20260905034229 | 77 | 0 | 1.0 | 2.0 | 0.00 | 1.08 | 1.08 | 95 | 1013.2 |
| 20260905033730 | 77 | 188 | 0.0 | 2.0 | 0.00 | 1.08 | 1.08 | 95 | 1013.2 |
| 20260905033231 | 77 | 208 | 0.0 | 2.0 | 0.00 | 1.08 | 1.08 | 95 | 1013.2 |
| 20260905032730 | 77 | 0 | 0.0 | 0.0 | 0.00 | 1.08 | 1.08 | 95 | 1013.2 |